{"data":{"norad_id":58905,"intl_designator":"2024-023A","name":"GEESAT-2 01","alt_names":[],"object_type":"PAYLOAD","status":"ACTIVE","operator":null,"country":"PRC","launch_date":"2024-02-02","launch_site_code":"XICLF","launch_vehicle":null,"mission":null,"orbit_class":"UNKNOWN","rcs_meters":null,"size_class":null,"mass_kg":null,"dimensions":null,"purposes":[],"wikipedia_slug":null,"has_3d_model":false,"image_url":null,"decayed_at":null,"tle_current":{"epoch":"2026-05-25T04:02:27.860064Z","epoch_age_seconds":56902,"freshness":"FRESH","line1":"1 58905U 24023A   26145.16837801  .00001459  00000+0  20427-3 0  9996","line2":"2 58905  49.9945 100.6988 0005596 303.1101  56.9300 14.83161188125490","mean_motion":14.83161188,"eccentricity":0.0005596,"inclination_deg":49.9945,"raan_deg":100.6988,"arg_perigee_deg":303.1101,"mean_anomaly_deg":56.93,"bstar":0.00020427,"rev_number":12549,"period_min":97.089919265066,"perigee_km":615.4477264676,"apogee_km":623.27932905827,"semimajor_km":6997.5005277629,"source":"CELESTRAK","updated_at":"2026-05-25T13:38:01.047618Z"}}}